This is the latest recevied weather packets stored in our database for station/object 9M2RSI-1. If no packets are shown the sender has not sent any weather packets the latest 10 day(s).
| Time | Temp. | Humidity | Pressure | Rain* | Wind** | Luminosity | Snow |
|---|---|---|---|---|---|---|---|
| 1777515605 | 30.56° C | 73% | 1011.4 hPa | - | - | - | - |
| 1777514705 | 30° C | 75% | 1011.3 hPa | - | - | - | - |
| 1777513805 | 30° C | 76% | 1011.4 hPa | - | - | - | - |
| 1777512905 | 29.44° C | 78% | 1011.2 hPa | - | - | - | - |
| 1777512005 | 28.89° C | 80% | 1011 hPa | - | - | - | - |
| 1777511105 | 28.33° C | 80% | 1011 hPa | - | - | - | - |
| 1777510205 | 28.33° C | 79% | 1010.9 hPa | - | - | - | - |
| 1777509305 | 28.33° C | 79% | 1010.7 hPa | - | - | - | - |
| 1777508404 | 27.78° C | 79% | 1010.5 hPa | - | - | - | - |
| 1777507504 | 27.78° C | 79% | 1010.5 hPa | - | - | - | - |
| 1777506605 | 27.78° C | 78% | 1010.4 hPa | - | - | - | - |
| 1777505704 | 27.78° C | 77% | 1010.6 hPa | - | - | - | - |
| 1777504804 | 27.78° C | 77% | 1010.5 hPa | - | - | - | - |
| 1777503904 | 27.78° C | 77% | 1010.5 hPa | - | - | - | - |
| 1777503004 | 27.78° C | 77% | 1010.2 hPa | - | - | - | - |
| 1777502104 | 27.78° C | 77% | 1010.1 hPa | - | - | - | - |
| 1777501204 | 27.78° C | 77% | 1010.1 hPa | - | - | - | - |
| 1777500304 | 27.78° C | 76% | 1010 hPa | - | - | - | - |
| 1777499404 | 27.78° C | 76% | 1009.9 hPa | - | - | - | - |
| 1777498504 | 27.78° C | 76% | 1009.6 hPa | - | - | - | - |
| 1777497603 | 28.33° C | 76% | 1009.6 hPa | - | - | - | - |
| 1777496704 | 28.33° C | 75% | 1009.6 hPa | - | - | - | - |
| 1777494003 | 28.33° C | 75% | 1009.4 hPa | - | - | - | - |
| 1777493103 | 28.33° C | 75% | 1009.5 hPa | - | - | - | - |
| 1777492203 | 28.33° C | 75% | 1009.6 hPa | - | - | - | - |
* Rain since midnight (hover to see other rain measurements)
** Current wind speed in m/s (hover to see current wind gust speed)